User: anonymous   Login
Location: M.A.R.S.Observatory
(35.4031°N, 81.5481°W)
Time: 03:53:33
(UTC-04:00)
Language:

SL-8 R/B - Orbit

View from above orbital plane
View from above orbital plane
View from above satellite
View from above satellite

Ground track
Ground track

The orbit data is extracted from the following two-line orbital elements,

1 33066U 08031G   16210.15636272  .00000045  00000-0  40306-4 0  9998
2 33066  48.4426 185.9473 0007750 191.8874 256.5402 14.69452377435107
Epoch (UTC): 28 July 2016 03:45:09
Eccentricity: 0.0007750
inclination: 48.4426°
perigee height: 657 km
apogee height: 668 km
right ascension of ascending node: 185.9473°
argument of perigee: 191.8874°
revolutions per day: 14.69452377
mean anomaly at epoch: 256.5402°
orbit number at epoch: 43510

The dashed part of the orbit path shows where the satellite is in the earth's shadow,  

DLR